Warrenton, VA

1:04 AM EDT on July 26, 2017 (GMT -0400)
Warrenton

Weather History for KHWY - December, 2012

Change the Weather History Date:

Tuesday, December 18, 2012

  Actual Average (KHEF) Record (KHEF)
Temperature  
Mean Temperature 48 °F -  
Max Temperature 63 °F 43 °F 75 °F (2006)
Min Temperature 33 °F 23 °F 10 °F (2010)
Degree Days  
Heating Degree Days 16    
Moisture  
Dew Point 45 °F    
Average Humidity 84    
Maximum Humidity 100    
Minimum Humidity 52    
Precipitation  
Precipitation 0.00 in - - ()
Sea Level Pressure  
Sea Level Pressure 29.64 in    
Wind  
Wind Speed 5 mph (WSW)    
Max Wind Speed 17 mph    
Max Gust Speed 24 mph    
Visibility 6 miles    
Events Fog    
Averages and records for this station are not official NWS values.
T = Trace of Precipitation, MM = Missing Value Source: NWS Daily Summary

Daily Weather History Graph

Daily Weather History Graph

Search for Another Location

Airport or City:

Trip Planner

Search our weather history database for the weather conditions in past years. The results will help you decide how hot, cold, wet, or windy it might be!

Date:

Astronomy

Dec. 18, 2012 Rise Set
Actual Time 7:23 AM EST 4:51 PM EST
Civil Twilight 6:53 AM EST 5:21 PM EST
Nautical Twilight 6:20 AM EST 5:55 PM EST
Astronomical Twilight 5:48 AM EST 6:27 PM EST
Moon 11:06 AM EST (12/18) 11:11 PM EST (12/18)
Length of Visible Light 10h 28m
Length of Day
9h 28m
Waxing Crescent, 34% of the Moon is Illuminated
Dec 18
Waxing Crescent
Dec 20
First Quarter
Dec 28
Full
Jan 4
Last Quarter
Jan 11
New

Hourly Weather History & Observations

Time (EST) Temp. Windchill Dew Point Humidity Pressure Visibility Wind Dir Wind Speed Gust Speed Precip Events Conditions
12:15 AM 50.2 °F - 50.2 °F 100% 29.54 in 1.0 mi Calm Calm - N/A   Overcast
12:35 AM 50.5 °F - 50.5 °F 100% 29.54 in 1.8 mi SW 3.5 mph - N/A   Overcast
12:55 AM 50.7 °F - 50.7 °F 100% 29.55 in 0.8 mi SW 4.6 mph - N/A   Overcast
1:15 AM 50.9 °F - 50.9 °F 100% 29.55 in 0.5 mi SW 5.8 mph - N/A Fog Fog
1:35 AM 50.9 °F - 50.9 °F 100% 29.55 in 0.5 mi SW 5.8 mph - N/A Fog Fog
1:55 AM 51.3 °F - 51.3 °F 100% 29.56 in 0.5 mi SW 5.8 mph - N/A Fog Fog
2:15 AM 51.4 °F - 51.4 °F 100% 29.55 in 0.5 mi SW 4.6 mph - N/A Fog Fog
2:35 AM 51.8 °F - 51.8 °F 100% 29.56 in 0.5 mi SW 8.1 mph - N/A Fog Fog
2:55 AM 51.8 °F - 51.8 °F 100% 29.56 in 0.8 mi SW 8.1 mph - N/A   Overcast
3:15 AM 52.0 °F - 52.0 °F 100% 29.56 in 1.2 mi WSW 5.8 mph - N/A   Overcast
3:35 AM 51.8 °F - 51.8 °F 100% 29.55 in 0.5 mi WSW 3.5 mph - N/A Fog Fog
3:55 AM 51.6 °F - 51.6 °F 100% 29.55 in 1.5 mi SW 4.6 mph - N/A   Overcast
4:15 AM 51.1 °F - 51.1 °F 100% 29.56 in 1.8 mi SW 5.8 mph - N/A   Overcast
4:35 AM 50.7 °F - 50.7 °F 100% 29.56 in 3.0 mi SSW 5.8 mph - N/A   Overcast
4:55 AM 50.5 °F - 50.5 °F 100% 29.56 in 1.8 mi SW 8.1 mph - N/A   Overcast
5:15 AM 50.2 °F - 50.2 °F 100% 29.55 in 0.5 mi SW 5.8 mph - N/A Fog Fog
5:35 AM 50.0 °F - 50.0 °F 100% 29.56 in 0.2 mi WSW 3.5 mph - N/A Fog Fog
5:55 AM 49.8 °F - 49.8 °F 100% 29.56 in 0.5 mi SW 4.6 mph - N/A Fog Fog
6:15 AM 49.5 °F - 49.5 °F 100% 29.56 in 0.5 mi SW 4.6 mph - N/A Fog Fog
6:35 AM 49.1 °F - 49.1 °F 100% 29.57 in 0.5 mi SSW 3.5 mph - N/A Fog Fog
6:55 AM 49.1 °F - 49.1 °F 100% 29.58 in 0.5 mi West 3.5 mph - N/A Fog Fog
7:15 AM 48.4 °F - 48.4 °F 100% 29.58 in 0.5 mi WSW 4.6 mph - N/A Fog Fog
7:35 AM 47.7 °F - 47.7 °F 100% 29.58 in 0.2 mi Calm Calm - N/A Fog Fog
7:55 AM 46.6 °F - 46.6 °F 100% 29.59 in 0.2 mi Calm Calm - N/A Fog Fog
8:15 AM 46.2 °F - 46.2 °F 100% 29.60 in 0.2 mi Calm Calm - N/A Fog Fog
8:35 AM 46.9 °F - 46.9 °F 100% 29.60 in 0.2 mi Calm Calm - N/A Fog Fog
8:55 AM 48.2 °F - 48.2 °F 100% 29.60 in 3.0 mi WSW 3.5 mph - N/A   Scattered Clouds
9:15 AM 50.0 °F - 50.0 °F 100% 29.60 in 10.0 mi SW 5.8 mph - N/A   Clear
9:35 AM 51.1 °F - 51.1 °F 100% 29.61 in 10.0 mi WSW 4.6 mph - N/A   Clear
9:55 AM 52.7 °F - 52.7 °F 100% 29.61 in 10.0 mi WSW 4.6 mph - N/A   Clear
10:15 AM 54.0 °F - 54.0 °F 100% 29.62 in 10.0 mi West 5.8 mph - N/A   Clear
10:55 AM 59.9 °F - 52.2 °F 76% 29.62 in 10.0 mi West 8.1 mph 17.3 mph N/A   Clear
11:15 AM 60.3 °F - 51.3 °F 72% 29.62 in 10.0 mi West 8.1 mph - N/A   Clear
11:35 AM 60.3 °F - 48.7 °F 66% 29.62 in 10.0 mi West 13.8 mph 20.7 mph N/A   Clear
11:55 AM 62.1 °F - 47.3 °F 58% 29.61 in 10.0 mi WSW 10.4 mph - N/A   Scattered Clouds
12:15 PM 61.9 °F - 46.2 °F 56% 29.61 in 10.0 mi West 13.8 mph 21.9 mph N/A   Mostly Cloudy
12:35 PM 61.0 °F - 45.5 °F 57% 29.61 in 10.0 mi West 6.9 mph 18.4 mph N/A   Mostly Cloudy
12:55 PM 63.5 °F - 45.5 °F 52% 29.61 in 10.0 mi West 11.5 mph 24.2 mph N/A   Overcast
1:15 PM 59.4 °F - 43.7 °F 56% 29.61 in 10.0 mi West 10.4 mph 20.7 mph N/A   Overcast
1:35 PM 61.0 °F - 44.4 °F 54% 29.61 in 10.0 mi West 12.7 mph 19.6 mph N/A   Mostly Cloudy
1:55 PM 58.1 °F - 42.3 °F 56% 29.62 in 10.0 mi WNW 17.3 mph 21.9 mph N/A   Scattered Clouds
2:15 PM 57.4 °F - 45.5 °F 65% 29.64 in 10.0 mi NW 10.4 mph - N/A   Mostly Cloudy
2:35 PM 57.4 °F - 44.8 °F 63% 29.64 in 10.0 mi WNW 9.2 mph 16.1 mph N/A   Overcast
2:55 PM 56.8 °F - 43.5 °F 61% 29.65 in 10.0 mi WNW 12.7 mph 20.7 mph N/A   Overcast
3:15 PM 56.1 °F - 42.3 °F 60% 29.67 in 10.0 mi NW 5.8 mph 10.4 mph N/A   Overcast
3:35 PM 55.4 °F - 41.7 °F 60% 29.67 in 10.0 mi WNW 15.0 mph 21.9 mph N/A   Overcast
3:55 PM 55.0 °F - 40.6 °F 58% 29.69 in 10.0 mi NW 10.4 mph - N/A   Overcast
4:15 PM 54.3 °F - 41.2 °F 61% 29.69 in 10.0 mi WNW 5.8 mph - N/A   Overcast
4:35 PM 53.2 °F - 40.1 °F 61% 29.70 in 10.0 mi NW 12.7 mph - N/A   Scattered Clouds
4:55 PM 51.8 °F - 40.3 °F 65% 29.71 in 10.0 mi NW 9.2 mph - N/A   Mostly Cloudy
5:15 PM 50.0 °F - 40.1 °F 69% 29.71 in 10.0 mi NW 8.1 mph - N/A   Scattered Clouds
5:35 PM 50.0 °F - 40.3 °F 69% 29.72 in 10.0 mi WNW 11.5 mph - N/A   Clear
5:55 PM 48.9 °F - 40.1 °F 72% 29.73 in 10.0 mi WNW 8.1 mph - N/A   Clear
6:15 PM 48.6 °F - 39.2 °F 70% 29.74 in 10.0 mi WNW 8.1 mph - N/A   Clear
6:35 PM 46.9 °F - 38.5 °F 72% 29.75 in 10.0 mi WNW 10.4 mph - N/A   Clear
6:55 PM 48.6 °F - 37.9 °F 67% 29.75 in 10.0 mi West 9.2 mph - N/A   Clear
7:15 PM 45.7 °F 42.0 °F 37.4 °F 73% 29.77 in 10.0 mi West 6.9 mph - N/A   Clear
7:35 PM 43.2 °F - 36.7 °F 78% 29.78 in 10.0 mi Calm Calm - N/A   Clear
7:55 PM 41.5 °F - 36.5 °F 82% 29.78 in 10.0 mi Calm Calm - N/A   Clear
8:15 PM 36.9 °F 33.1 °F 34.9 °F 93% 29.79 in 10.0 mi WSW 4.6 mph - N/A   Clear
8:55 PM 39.2 °F 37.0 °F 35.8 °F 88% 29.80 in 10.0 mi WNW 3.5 mph - N/A   Clear
9:15 PM 37.6 °F - 35.1 °F 91% 29.80 in 10.0 mi Calm Calm - N/A   Clear
9:35 PM 34.7 °F - 32.9 °F 93% 29.80 in 10.0 mi Calm Calm - N/A   Clear
9:55 PM 34.3 °F 31.4 °F 33.3 °F 96% 29.80 in 10.0 mi West 3.5 mph - N/A   Clear
10:15 PM 37.4 °F 33.8 °F 35.2 °F 92% 29.80 in 10.0 mi West 4.6 mph - N/A   Clear
10:55 PM 39.6 °F 37.4 °F 35.6 °F 86% 29.80 in 10.0 mi SSE 3.5 mph - N/A   Clear
11:15 PM 37.2 °F 34.7 °F 34.5 °F 90% 29.80 in 10.0 mi SSE 3.5 mph - N/A   Clear
11:55 PM 33.3 °F - 33.3 °F 100% 29.81 in 10.0 mi Calm Calm - N/A   Clear